SCP
0 0 0 0 0 0 0 0 0 0 0 0 0 0 0 0 0 0 0 0 1 1 1 1 0 0 0 0 1 1 1 0 0 0 1 1 1 1 1 1 1 1 1
0 0 0 0 0 0 0 0 0 0 0 0 0 0 0 0 0 0 0 0 0 1 1 0 0 0 0 1 1 1 1 1 0 1 1 1 1 1 1 1 1 1 1
0 0 0 0 0 0 0 0 0 0 0 0 0 0 0 0 0 0 0 0 0 0 0 0 0 0 0 1 1 1 1 1 1 1 1 1 1 1 1 1 1 1 1
1 1 0 0 0 0 0 0 0 0 0 0 0 0 0 0 0 0 0 0 0 0 1 1 1 0 0 1 1 0 1 1 1 1 1 1 1 1 1 1 1 1 1
1 1 1 0 0 0 0 0 0 0 0 0 0 0 0 0 0 0 0 0 0 0 1 1 1 1 1 1 1 1 1 1 1 1 1 1 1 1 1 1 0 1 1
1 1 1 0 0 0 0 0 0 0 0 0 0 0 0 0 0 0 0 0 0 1 1 1 1 1 1 1 1 1 1 1 1 1 1 1 1 1 1 0 0 0 1
1 1 1 1 0 0 0 0 0 0 0 0 0 0 0 0 0 0 0 0 0 1 1 1 1 1 1 1 1 1 1 1 1 1 1 1 1 1 1 0 0 0 1
0 0 0 0 0 0 0 0 0 0 0 0 0 0 0 0 0 0 0 0 0 0 1 1 1 1 1 1 1 1 1 1 1 1 1 1 1 1 0 0 0 1 1
0 0 0 0 0 0 0 0 0 0 0 0 0 0 0 0 0 0 0 0 0 0 0 1 1 1 1 1 1 1 1 1 1 1 1 1 1 1 0 0 0 1 1
0 0 0 0 0 0 0 0 0 1 1 1 0 0 0 0 0 0 0 0 0 0 0 0 0 1 1 1 1 1 1 1 1 1 1 1 1 1 1 1 1 1 1
0 0 0 0 0 0 0 0 0 0 1 1 1 0 0 0 0 0 0 0 0 0 0 0 0 1 1 1 1 1 1 1 1 1 1 1 1 1 1 1 1 1 1
1 1 1 1 1 1 0 0 0 0 1 1 1 1 1 0 0 0 0 0 0 0 0 0 0 0 1 1 1 1 1 1 1 2 2 2 1 1 1 1 1 1 1
1 1 1 1 1 1 0 0 0 0 0 1 1 1 1 1 0 0 0 0 0 0 0 0 0 0 0 1 1 1 1 1 2 2 2 2 1 1 2 2 1 1 1
1 2 2 2 1 1 0 0 0 0 0 0 1 1 1 1 0 0 0 0 0 0 0 0 0 0 0 1 1 1 1 2 2 2 2 2 2 2 2 1 1 1 1
2 2 2 1 1 0 0 0 0 0 0 0 0 0 1 0 0 0 0 0 0 0 0 0 0 0 0 0 1 1 1 1 2 2 2 2 1 1 1 1 1 1 1
1 1 2 1 1 0 0 0 1 1 0 0 0 0 0 0 0 0 0 0 0 0 0 0 0 0 1 1 1 1 1 1 1 1 1 1 1 1 0 0 0 0 0
1 1 2 1 1 1 0 0 1 1 1 0 0 0 0 0 0 0 0 0 0 0 0 0 0 0 1 1 1 1 1 1 1 1 0 0 0 0 0 0 0 0 0
1 1 2 2 1 1 1 1 1 1 1 0 0 0 0 0 0 0 0 0 0 0 0 0 0 0 0 0 0 0 0 0 0 0 0 0 0 0 0 0 0 0 0
2 2 2 2 1 1 1 1 1 1 1 0 0 0 0 0 0 0 0 0 0 0 0 0 0 0 0 0 0 0 0 0 0 0 0 0 0 0 0 0 0 0 0
2 2 2 2 2 2 1 1 1 1 1 0 0 0 0 0 0 0 0 0 0 0 0 0 0 0 0 0 0 0 0 0 0 0 0 0 0 0 0 0 0 0 0
1 2 2 2 2 2 2 2 1 1 1 1 0 0 0 0 0 0 0 0 0 0 0 0 0 0 0 0 0 0 0 0 0 0 0 0 0 0 0 0 0 0 0
1 1 1 2 2 2 2 2 2 1 1 1 1 0 0 0 0 0 0 0 0 0 0 0 0 0 0 0 0 0 0 0 0 0 0 0 0 0 0 0 0 0 0
0 0 1 1 2 2 2 1 1 1 1 1 1 0 0 0 0 0 0 0 0 0 0 0 0 0 0 0 0 0 0 0 0 0 0 0 0 0 0 0 0 0 0
1 0 1 1 1 1 1 1 1 1 1 1 1 1 0 0 0 0 0 0 0 0 0 0 0 0 0 0 0 0 0 0 0 0 0 0 0 1 1 1 0 0 0
1 1 1 1 1 1 1 0 0 1 1 1 1 1 0 0 0 0 0 0 0 0 0 0 0 0 0 0 0 0 0 0 0 0 0 0 0 1 1 1 0 0 0
1 1 1 1 1 1 1 0 0 1 1 1 1 1 0 0 0 0 0 0 0 0 0 0 0 0 0 0 0 0 0 0 0 0 0 0 0 0 0 0 0 0 0
Wind_Speed
1 2 2 2 2 2 2 2 3 4 5 5 5 5 5 5 4 4 3 8 8 8 8 8 8 8 8 8 8 8 7 7 7 7 8 8 7 7 7 7 7 8 8
2 2 2 2 2 2 2 2 3 3 3 4 4 4 4 4 3 3 3 4 7 7 7 7 7 6 6 7 7 7 7 7 7 7 7 8 8 8 8 8 7 7 8
2 2 2 2 2 2 2 2 3 2 2 3 3 3 3 3 3 3 2 2 3 5 6 7 7 6 6 6 7 6 6 6 7 7 8 8 9 9 8 8 8 7 7
2 2 2 1 2 2 2 2 2 2 2 2 2 2 2 2 2 2 2 2 2 2 4 5 5 5 6 6 6 6 7 7 8 8 8 9 9 8 8 8 7 7 7
3 3 2 1 2 2 2 2 2 2 2 2 1 1 1 1 1 2 2 2 2 2 2 2 4 5 5 5 6 6 6 7 7 7 7 7 7 7 7 7 7 7 6
3 3 1 2 2 2 2 2 2 2 1 1 2 2 1 0 1 1 1 2 2 2 2 2 1 2 5 6 6 6 6 6 6 6 6 6 7 6 6 5 5 5 5
2 2 1 1 2 1 1 1 1 1 1 1 1 2 2 1 1 1 1 1 2 1 1 2 1 1 2 4 5 6 6 6 6 6 6 6 6 6 5 5 4 4 4
1 2 1 1 1 1 2 1 1 1 1 1 0 1 2 2 3 1 1 1 1 1 1 2 2 2 2 2 3 5 5 5 5 5 5 5 5 5 5 5 4 4 4
2 2 1 1 1 1 1 1 1 1 1 2 1 1 0 1 2 2 1 1 1 1 1 1 2 2 2 2 2 3 4 4 4 4 4 4 5 5 5 4 3 3 3
1 1 0 1 1 1 1 0 1 1 1 1 2 1 1 1 1 1 2 1 1 1 1 1 1 2 2 2 3 4 4 3 3 3 3 3 4 4 4 4 3 2 3
1 1 0 1 1 1 0 1 1 1 1 0 1 1 2 2 1 1 1 2 2 1 0 0 1 1 1 1 2 3 3 2 2 2 2 2 3 3 3 3 3 3 3
1 1 1 0 1 1 1 1 1 1 1 1 1 1 1 1 1 1 1 2 1 2 1 1 0 1 1 1 2 3 3 2 1 1 1 1 2 2 3 3 2 2 2
1 1 1 0 1 1 1 1 1 1 1 1 1 1 1 1 1 1 1 2 2 2 1 1 1 1 1 1 2 3 4 3 2 2 1 0 1 2 2 2 1 2 2
2 2 2 1 1 1 1 1 1 1 1 1 2 1 1 2 2 1 1 1 2 2 2 2 1 0 0 1 2 3 2 4 3 2 2 1 1 1 2 1 1 1 1
1 2 2 1 1 1 1 1 0 1 1 1 1 1 0 1 1 1 1 1 0 2 3 2 2 1 0 1 2 1 2 4 4 3 3 2 1 1 1 1 1 1 1
1 2 2 2 1 1 1 1 0 0 1 1 1 1 1 1 1 1 1 1 0 1 2 2 2 2 2 0 2 1 1 3 4 4 4 3 2 2 2 2 1 1 1
1 2 2 2 1 1 1 1 0 0 1 1 1 1 1 1 1 1 1 1 1 1 2 3 2 2 3 2 1 1 1 2 2 4 4 4 3 3 3 2 2 2 1
1 1 2 2 1 1 1 1 0 0 0 0 1 1 2 1 1 1 1 1 1 2 2 3 3 2 2 2 1 1 1 1 2 4 4 4 4 4 3 3 2 2 1
1 1 1 1 1 1 1 0 1 1 1 1 1 1 1 1 1 2 1 1 1 2 1 1 2 2 2 1 2 1 1 1 1 3 4 4 4 4 4 4 3 3 2
1 1 1 1 1 1 1 1 1 1 1 2 1 1 1 0 1 2 2 2 2 2 2 1 2 2 2 2 1 1 2 1 1 1 1 2 3 4 5 4 4 3 3
0 0 1 1 1 2 1 1 1 1 1 2 2 1 1 1 2 2 2 2 2 1 1 1 2 2 2 1 1 1 2 2 2 1 1 1 1 1 2 4 5 5 4
0 0 0 1 1 1 1 1 2 2 2 2 2 1 1 1 3 3 4 4 3 2 2 1 2 2 2 2 2 2 1 1 2 2 0 2 1 1 2 2 3 5 5
0 0 0 0 1 2 2 1 2 2 2 2 1 1 2 2 2 2 3 4 4 4 4 2 2 3 3 2 2 2 2 2 3 2 1 3 2 2 2 2 4 5 4
0 0 1 1 0 1 2 1 2 2 2 2 1 1 1 1 3 3 2 2 3 4 4 3 3 3 3 2 2 3 3 3 3 2 1 2 2 2 2 2 4 5 4
0 1 1 1 0 1 2 1 1 1 2 2 2 1 1 1 4 5 3 3 3 4 4 4 4 4 5 5 4 1 1 1 3 3 1 2 2 2 1 2 3 5 4
1 1 1 1 1 1 1 1 1 0 2 2 2 1 2 3 4 4 1 2 3 4 3 4 4 5 4 4 4 2 2 2 2 3 2 1 2 0 1 1 1 2 2
Wind_Direction
51 65 72 60 47 39 34 16 17 29 23 25 32 41 47 59 60 70 73 75 73 68 61 58 54 52 52 51 50 50 54 57 57 60 62 63 68 72 74 78 75 71 69
61 58 55 52 44 39 36 30 26 40 28 30 31 34 34 52 66 83 92 77 73 68 59 57 55 55 53 49 48 50 55 56 56 57 60 64 66 69 67 68 71 72 71
75 71 62 48 38 34 28 34 27 38 39 36 29 28 29 43 55 68 89 94 73 62 63 58 54 55 52 54 55 57 59 57 55 55 56 60 64 65 64 62 63 68 69
75 75 67 49 51 39 30 40 42 33 32 31 18 14 26 46 51 61 80 100 101 79 62 66 59 56 52 53 59 64 66 64 63 61 60 60 60 60 61 59 59 64 64
67 72 59 49 57 47 27 29 39 33 22 18 358 3 31 41 43 49 46 73 88 102 98 81 71 60 47 63 73 70 70 66 66 66 65 63 61 58 57 58 59 61 63
61 72 61 53 61 57 27 33 35 18 16 353 357 8 338 168 83 64 42 50 64 86 109 109 99 55 56 76 80 73 71 68 68 68 67 63 58 56 56 56 58 59 60
55 69 46 54 62 70 53 37 48 12 339 352 24 347 334 19 80 81 60 46 52 48 81 107 124 105 72 80 80 76 73 69 67 67 67 61 52 51 50 49 58 62 59
74 82 66 48 70 65 38 18 37 12 330 352 27 8 355 347 357 46 59 44 38 31 37 49 60 89 114 101 89 87 76 69 66 65 64 58 49 43 44 46 55 55 55
62 64 63 47 64 82 65 9 42 26 312 317 13 71 91 275 310 315 7 53 36 35 10 12 39 54 90 105 106 93 84 67 60 58 55 52 42 42 42 42 51 46 55
101 86 64 78 76 71 89 332 35 342 2 327 329 336 314 155 149 312 322 347 42 44 353 8 32 39 67 88 100 99 100 82 58 49 46 46 43 39 37 34 39 43 54
128 103 56 66 58 40 52 23 26 3 358 346 325 325 329 333 294 149 295 312 333 327 326 18 68 62 75 106 120 110 115 110 89 56 41 39 39 31 31 26 34 44 48
160 138 82 43 73 45 46 23 4 26 340 345 338 339 339 341 326 335 286 288 295 291 301 345 91 174 176 138 130 135 136 140 148 122 53 22 16 12 17 14 30 36 28
163 175 136 303 75 58 44 55 13 351 342 3 352 341 338 322 336 7 4 321 323 304 322 300 226 187 207 145 148 160 162 166 177 172 185 325 350 344 345 355 19 16 8
175 156 151 155 116 103 69 71 25 351 347 354 333 338 340 337 358 12 38 5 339 325 327 298 302 230 197 151 166 181 176 181 187 187 204 229 264 296 325 323 307 338 333
137 134 139 131 127 119 107 105 75 332 353 331 305 312 326 325 340 350 7 46 99 315 309 300 319 307 310 125 165 185 169 193 190 190 203 210 228 260 285 290 294 301 311
151 151 149 147 144 127 105 89 96 330 42 356 335 346 340 327 342 354 1 356 10 248 285 300 306 307 322 335 194 215 188 198 199 198 206 207 211 228 252 265 265 279 299
152 148 149 150 148 137 132 109 113 5 36 351 339 337 317 328 346 319 317 307 301 284 280 299 313 323 324 325 305 258 215 188 185 201 202 206 215 227 240 250 254 258 281
157 148 136 130 118 114 119 132 198 280 317 320 310 319 311 332 323 301 285 269 275 263 254 284 301 310 308 305 302 285 267 207 176 198 203 208 216 226 234 239 240 238 256
143 149 138 141 136 127 100 285 212 236 268 271 263 279 300 336 315 318 316 303 288 285 271 260 284 294 298 310 325 319 308 308 246 203 206 215 221 226 227 226 228 235 247
143 161 170 168 155 129 95 1 324 268 277 282 283 267 291 351 307 304 306 299 296 295 291 290 293 302 299 298 333 324 314 310 289 270 231 218 221 232 228 223 224 230 240
243 168 168 140 127 117 77 8 303 302 288 294 298 288 291 337 347 346 340 324 310 290 290 288 286 302 304 325 299 280 287 292 288 276 270 247 210 221 228 230 231 231 228
230 51 312 135 118 111 70 24 342 282 265 264 283 303 316 322 355 346 344 346 337 307 294 275 273 278 279 273 275 277 286 298 289 288 293 278 225 220 226 218 230 222 216
14 28 275 203 159 150 119 46 333 304 273 262 265 301 312 339 344 317 310 318 325 316 304 284 277 274 278 278 273 274 268 262 261 255 242 269 253 240 244 240 224 217 216
76 284 282 303 242 156 119 58 321 281 277 290 301 312 314 324 332 329 303 304 300 304 291 283 271 276 278 280 263 258 256 271 274 277 206 257 254 241 248 230 223 210 216
294 266 249 261 245 148 116 93 25 301 307 307 313 327 324 293 330 337 332 311 302 296 299 297 295 294 294 298 291 296 286 274 279 277 255 236 254 250 244 232 222 209 218
242 263 267 249 175 153 123 113 97 294 306 301 307 310 313 319 326 331 303 292 292 292 308 311 301 296 287 292 293 259 242 249 263 271 259 227 249 222 274 254 211 203 225